Weather History for Placerville, CA

Change the Weather History Date:

Saturday, January 19, 2013

  Actual Average Record
Temperature  
Mean Temperature 53 °F -  
Max Temperature 60 °F 56 °F 68 °F (2014)
Min Temperature 46 °F 33 °F 44 °F (2011)
Degree Days  
Heating Degree Days 12    
Growing Degree Days 3 (Base 50)    
Moisture  
Dew Point 23 °F    
Average Humidity 31    
Maximum Humidity 41    
Minimum Humidity 19    
Precipitation  
Precipitation 0.00 in - - ()
Sea Level Pressure  
Sea Level Pressure 30.23 in    
Wind  
Wind Speed 6 mph (East)    
Max Wind Speed 9 mph    
Max Gust Speed -    
Visibility 10 miles    
Events      
Averages and records for this station are not official NWS values.
T = Trace of Precipitation, MM = Missing Value Source: NWS Daily Summary

Daily Weather History Graph

Daily Weather History Graph

Search for Another Location

Airport:

Trip Planner

Search our weather history database for the weather conditions in past years. The results will help you decide how hot, cold, wet, or windy it might be!

Date:

Astronomy

Jan. 19, 2013 Rise Set
Actual Time 7:17 AM PST 5:10 PM PST
Civil Twilight 6:48 AM PST 5:39 PM PST
Nautical Twilight 6:16 AM PST 6:11 PM PST
Astronomical Twilight 5:44 AM PST 6:43 PM PST
Moon 11:38 AM PST (1/19) 12:58 AM PST (1/19)
Length of Visible Light 10h 50m
Length of Day
9h 52m
First Quarter, 58% of the Moon is Illuminated
Jan 19
First Quarter
Jan 26
Full
Feb 3
Last Quarter
Feb 9
New
Feb 17
First Quarter

Hourly Weather History & Observations

Time (PST) Temp. Windchill Dew Point Humidity Pressure Visibility Wind Dir Wind Speed Gust Speed Precip Events Conditions
12:15 AM 50.0 °F - 21.2 °F 32% - - ESE 8.1 mph - N/A   Clear
12:35 AM 48.2 °F - 21.2 °F 34% - - ESE 6.9 mph - N/A   Clear
12:55 AM 48.2 °F - 19.4 °F 32% - - East 6.9 mph - N/A   Clear
1:15 AM 46.4 °F 42.9 °F 19.4 °F 34% - - East 6.9 mph - N/A   Clear
1:35 AM 48.2 °F - 19.4 °F 32% - - ESE 9.2 mph - N/A   Clear
1:55 AM 48.2 °F - 17.6 °F 30% - - ESE 8.1 mph - N/A   Clear
2:15 AM 48.2 °F - 19.4 °F 32% - - ESE 8.1 mph - N/A   Clear
2:35 AM 46.4 °F 42.4 °F 19.4 °F 34% - - East 8.1 mph - N/A   Clear
2:55 AM 46.4 °F 42.4 °F 19.4 °F 34% - - ESE 8.1 mph - N/A   Clear
3:15 AM 50.0 °F - 17.6 °F 28% - - ESE 6.9 mph - N/A   Clear
3:35 AM 46.4 °F 42.4 °F 19.4 °F 34% - - ESE 8.1 mph - N/A   Clear
4:55 AM 53.6 °F - 14.0 °F 21% - - ESE 3.5 mph - N/A   Clear
5:15 AM 51.8 °F - 14.0 °F 22% - - ESE 4.6 mph - N/A   Clear
5:55 AM 50.0 °F - 15.8 °F 26% - - ESE 5.8 mph - N/A   Clear
6:15 AM 48.2 °F - 15.8 °F 27% - - East 6.9 mph - N/A   Clear
6:35 AM 50.0 °F - 14.0 °F 24% - - East 6.9 mph - N/A   Clear
7:35 AM 48.2 °F - 14.0 °F 25% - - East 5.8 mph - N/A   Clear
7:55 AM 48.2 °F - 14.0 °F 25% - - East 5.8 mph - N/A   Clear
8:15 AM 50.0 °F - 14.0 °F 24% - - East 5.8 mph - N/A   Clear
8:35 AM 50.0 °F - 14.0 °F 24% - - East 4.6 mph - N/A   Clear
8:55 AM 53.6 °F - 14.0 °F 21% - - East 3.5 mph - N/A   Clear
9:15 AM 55.4 °F - 15.8 °F 21% - - East 3.5 mph - N/A   Clear
9:35 AM 57.2 °F - 17.6 °F 21% - - NE 3.5 mph - N/A   Clear
9:55 AM 57.2 °F - 19.4 °F 23% - - Calm Calm - N/A   Clear
10:15 AM 59.0 °F - 15.8 °F 19% - - SSE 3.5 mph - N/A   Clear
10:35 AM 59.0 °F - 19.4 °F 22% - - Calm Calm - N/A   Clear
10:55 AM 59.0 °F - 21.2 °F 23% - - Calm Calm - N/A   Clear
11:15 AM 60.8 °F - 26.6 °F 27% - - Calm Calm - N/A   Clear
11:55 AM 59.0 °F - 24.8 °F 27% - - Calm Calm - N/A   Clear
12:15 PM 59.0 °F - 24.8 °F 27% - - Calm Calm - N/A   Clear
12:35 PM 60.8 °F - 24.8 °F 25% - - West 4.6 mph - N/A   Clear
12:55 PM 59.0 °F - 24.8 °F 27% - - WNW 4.6 mph - N/A   Clear
1:15 PM 59.0 °F - 23.0 °F 25% 30.23 in 10.0 mi WNW 4.6 mph - N/A   Clear
1:35 PM 60.8 °F - 24.8 °F 25% 30.23 in 10.0 mi WNW 6.9 mph - N/A   Clear
1:55 PM 59.0 °F - 24.8 °F 27% 30.22 in 10.0 mi NNW 4.6 mph - N/A   Clear
2:15 PM 60.8 °F - 24.8 °F 25% 30.22 in 10.0 mi NW 3.5 mph - N/A   Clear
2:35 PM 60.8 °F - 24.8 °F 25% 30.22 in 10.0 mi NW 3.5 mph - N/A   Clear
2:55 PM 60.8 °F - 24.8 °F 25% 30.21 in 10.0 mi NW 3.5 mph - N/A   Clear
3:15 PM 59.0 °F - 24.8 °F 27% 30.21 in 10.0 mi NNW 3.5 mph - N/A   Clear
3:35 PM 59.0 °F - 26.6 °F 29% 30.21 in 10.0 mi WNW 3.5 mph - N/A   Clear
3:55 PM 59.0 °F - 26.6 °F 29% 30.21 in 10.0 mi NW 3.5 mph - N/A   Clear
4:15 PM 59.0 °F - 28.4 °F 31% 30.22 in 10.0 mi Calm Calm - N/A   Clear
4:35 PM 57.2 °F - 30.2 °F 36% 30.22 in 10.0 mi Calm Calm - N/A   Clear
4:55 PM 55.4 °F - 30.2 °F 38% 30.21 in 10.0 mi NNW 3.5 mph - N/A   Clear
5:15 PM 55.4 °F - 30.2 °F 38% 30.21 in 10.0 mi NNW 4.6 mph - N/A   Clear
5:35 PM 55.4 °F - 32.0 °F 41% 30.21 in 10.0 mi North 3.5 mph - N/A   Clear
5:55 PM 55.4 °F - 28.4 °F 36% 30.21 in 10.0 mi NNE 3.5 mph - N/A   Clear
6:15 PM 53.6 °F - 30.2 °F 41% 30.21 in 10.0 mi East 4.6 mph - N/A   Clear
6:35 PM 53.6 °F - 28.4 °F 38% 30.21 in 10.0 mi East 5.8 mph - N/A   Clear
6:55 PM 55.4 °F - 28.4 °F 36% 30.22 in 10.0 mi Calm Calm - N/A   Clear
7:15 PM 53.6 °F - 28.4 °F 38% 30.22 in 10.0 mi ENE 4.6 mph - N/A   Clear
7:35 PM 53.6 °F - 28.4 °F 38% 30.22 in 10.0 mi East 5.8 mph - N/A   Clear
7:55 PM 51.8 °F - 28.4 °F 41% 30.22 in 10.0 mi ENE 9.2 mph - N/A   Clear
8:15 PM 51.8 °F - 28.4 °F 41% 30.23 in 10.0 mi East 6.9 mph - N/A   Clear
8:35 PM 51.8 °F - 26.6 °F 38% 30.23 in 10.0 mi East 4.6 mph - N/A   Clear
8:55 PM 51.8 °F - 26.6 °F 38% 30.23 in 10.0 mi East 6.9 mph - N/A   Clear
9:15 PM 51.8 °F - 26.6 °F 38% 30.24 in 10.0 mi East 4.6 mph - N/A   Clear
9:35 PM 50.0 °F - 26.6 °F 40% 30.24 in 10.0 mi East 6.9 mph - N/A   Clear
9:55 PM 50.0 °F - 24.8 °F 37% 30.24 in 10.0 mi East 5.8 mph - N/A   Clear
10:15 PM 50.0 °F - 24.8 °F 37% 30.25 in 10.0 mi ESE 4.6 mph - N/A   Clear
10:35 PM 48.2 °F - 24.8 °F 40% 30.26 in 10.0 mi East 6.9 mph - N/A   Clear
10:55 PM 50.0 °F - 24.8 °F 37% 30.26 in 10.0 mi ESE 6.9 mph - N/A   Clear
11:15 PM 48.2 °F - 24.8 °F 40% 30.26 in 10.0 mi ESE 6.9 mph - N/A   Clear
11:35 PM 48.2 °F - 23.0 °F 37% 30.26 in 10.0 mi ESE 6.9 mph - N/A   Clear
11:55 PM 48.2 °F - 23.0 °F 37% 30.26 in 10.0 mi East 6.9 mph - N/A   Clear